Tracking 19634 objects as of 21-May-2019
HD Live streaming from Space Station
objects crossing your sky now

THORAD AGENA D DEB

Track THORAD AGENA D DEB now!
10-day predictions


NORAD ID: 5024
Int'l Code: 1970-025HY
Perigee: 775.1 km
Apogee: 910.9 km
Inclination: 99.9 °
Period: 101.6 minutes
Semi major axis: 7213 km
RCS: 0.0419 m2 (small)
Launch date: April 8, 1970
Source: United States (US)
Launch site: AIR FORCE WESTERN TEST RANGE (AFWTR)

Note: This is SATELLITE DEBRIS
aabbcc
Your satellite tracking list
Your tracking list is empty




NASA's NSSDC Master Catalog

Two Line Element Set (TLE):
1  5024U 70025HY  19141.02258268  .00000285  00000-0  16089-3 0  9996
2  5024  99.8568 149.7235 0094119 111.7179 249.4044 14.16905445505668
Source of the keplerian elements: AFSPC